[[{"header":{"parameterUnit":"m.s-1","parameterCategory":1,"la1":30.2991,"la2":30.254,"lo1":-89.0895,"lo2":-89.0444,"dy":0.0017,"dx":0.0017,"nx":28,"ny":28,"refTime":"2025-09-08T09:00:00:Z","depth":0,"parameterNumber":2,"parameterNumberName":"U-component_of_WINDS"},"data":[0,0,0,0,0,0,0,0,0,0,0,0,0,0,0,0,0,0,0,0,0,0,0,0,0,0,0,0,0,0,0,0,0,0,0,0,0,0,0,0,0,0,0,0,0,0,0,0,0,0,0,0,0,0,0,0,0,0,-5.1743,-5.1744,0,-5.1898,-5.1899,-5.1901,-5.1842,-5.1839,-5.1835,-5.1832,-5.1989,-5.1997,-5.2004,0,0,0,0,0,0,0,0,0,0,0,0,0,-5.1393,-5.14,-5.1742,-5.1744,-5.1746,-5.1897,-5.1899,-5.1902,-5.1843,-5.1838,-5.1834,-5.183,-5.1987,-5.1996,-5.2005,0,0,0,0,0,0,0,0,0,0,0,0,0,-5.1546,-5.1402,-5.1742,-5.1735,-5.1736,-5.1897,-5.19,-5.1902,-5.1844,-5.1838,-5.1833,-5.1828,-5.1984,-5.1995,-5.2006,-5.2182,0,0,-5.204,-5.2045,0,0,0,0,0,0,0,0,-5.1538,-5.1559,-5.1734,-5.1736,-5.1737,-5.1845,-5.1834,-5.1996,-5.1845,-5.1803,-5.1831,-5.1825,-5.1946,-5.196,-5.2,-5.219,-5.2197,-5.2041,-5.2048,-5.2053,-5.2056,0,0,0,0,0,0,0,-5.1527,-5.1552,-5.1804,-5.1737,-5.1739,-5.1724,-5.1739,-5.1864,-5.1902,-5.1806,-5.1802,-5.1821,-5.1945,-5.199,-5.2004,-5.2199,-5.2041,-5.2051,-5.2058,-5.2062,-5.2539,-5.2545,0,0,0,0,0,0,-5.1516,-5.1544,-5.1799,-5.1808,-5.1622,-5.1734,-5.1752,-5.1816,-5.1901,-5.1908,-5.1826,-5.1818,-5.1973,-5.1991,-5.2009,-5.222,-5.2053,-5.2064,-5.207,-5.2533,-5.2541,-5.2547,0,0,0,0,0,0,-5.1509,-5.154,-5.1793,-5.1675,-5.1706,-5.1746,-5.1818,-5.1822,-5.1866,-5.1916,-5.1922,-5.1864,-5.197,-5.1993,-5.2139,-5.2225,-5.2069,-5.2079,-5.2527,-5.2536,-5.2544,-5.2644,0,0,0,0,0,0,-5.1499,-5.1537,-5.1605,-5.1677,-5.1713,-5.1921,-5.1824,-5.1829,-5.1886,-5.1877,-5.1953,-5.1961,-5.1967,-5.2123,-5.2151,-5.2237,-5.2088,-5.2519,-5.2531,-5.2541,-5.2634,-5.2656,-5.2674,0,0,0,0,0,-5.1487,-5.1628,-5.1609,-5.164,-5.1799,-5.1926,-5.1947,-5.1951,-5.1893,-5.1961,-5.1993,-5.1958,-5.2211,-5.2138,-5.2169,-5.2261,-5.2514,-5.2527,-5.254,-5.2624,-5.2651,-5.2674,0,0,0,0,0,0,-5.1564,-5.1637,-5.1617,-5.1785,-5.185,-5.1916,-5.2002,-5.198,-5.2062,-5.2051,-5.2053,-5.207,-5.2221,-5.2255,-5.2173,-5.2435,-5.2353,-5.2374,-5.2407,-5.2433,-5.2453,-5.2441,-5.2097,0,0,0,0,0,-5.1601,-5.17,-5.1757,-5.19,-5.1934,-5.1963,-5.2019,-5.2017,-5.2084,-5.2111,-5.2153,-5.2219,-5.2313,-5.2375,-5.2464,-5.2638,-5.2654,-5.2716,-5.2737,-5.2753,-5.277,-5.2864,-5.2892,-5.2591,-5.2591,-5.259,0,0,-5.1678,-5.173,-5.1792,-5.1917,-5.1967,-5.2068,-5.1986,-5.2097,-5.2171,-5.2127,-5.2268,-5.2301,-5.2375,-5.2536,-5.2609,-5.2569,-5.2857,-5.277,-5.2783,-5.2791,-5.288,-5.2909,-5.2934,-5.26,-5.2598,-5.2597,0,0,-5.1869,-5.1919,-5.2043,-5.2094,-5.2171,-5.2189,-5.2219,-5.2289,-5.2309,-5.2451,-5.2419,-5.2508,-5.267,-5.2724,-5.2772,-5.2983,-5.2954,-5.3012,-5.3118,-5.3209,-5.3233,-5.3254,-5.3328,-5.3355,-5.3029,-5.3029,-5.3029,0,-5.1955,-5.2106,-5.2109,-5.2222,-5.2277,-5.2243,-5.2367,-5.2417,-5.2519,-5.2558,-5.2512,-5.2715,-5.2762,-5.2934,-5.2985,-5.3026,-5.3059,-5.3003,-5.3229,-5.3251,-5.327,-5.3341,-5.3369,-5.3036,-5.3035,-5.3034,-5.3034,0,-5.2207,-5.2313,-5.2403,-5.2502,-5.2568,-5.2687,-5.2706,-5.2772,-5.2765,-5.2787,-5.2931,-5.2986,-5.3086,-5.3127,-5.312,-5.3298,-5.3271,-5.3228,-5.3146,-5.3305,-5.3372,-5.3399,-5.3045,-5.3043,-5.3041,-5.3039,0,0,-5.2452,-5.255,-5.2584,-5.2628,-5.2709,-5.2791,-5.2907,-5.3004,-5.306,-5.3132,-5.3229,-5.3367,-5.3327,-5.3382,-5.3381,-5.3461,-5.3623,-5.3408,-5.341,-5.3445,-5.3821,-5.3852,-5.3884,-5.3605,-5.361,-5.3614,-5.3815,0,-5.2648,-5.2853,-5.2858,-5.3045,-5.3141,-5.3109,-5.321,-5.3271,-5.3295,-5.338,-5.3407,-5.3504,-5.3445,-5.3478,-5.3556,-5.3587,-5.3699,-5.3573,-5.3694,-5.3698,-5.3676,-5.3919,-5.3952,-5.4139,-5.3841,-5.3845,-5.3848,0,-5.2905,-5.2985,-5.3181,-5.3248,-5.3288,-5.3379,-5.3468,-5.355,-5.3618,-5.363,-5.3692,-5.3679,-5.3797,-5.3711,-5.3873,-5.3788,-5.3838,-5.3861,-5.3868,-5.3878,-5.3782,-5.3935,-5.4198,-5.4226,-5.3889,-5.3886,-5.3883,0,-5.3062,-5.3218,-5.3356,-5.3394,-5.3476,-5.3541,-5.3578,-5.364,-5.3698,-5.3776,-5.3813,-5.3904,-5.3953,-5.4024,-5.4036,-5.3973,-5.4198,-5.4114,-5.421,-5.421,-5.4258,-5.4255,-5.4533,-5.4293,-5.4292,-5.4292,-5.4291,0,-5.3281,-5.3402,-5.3427,-5.3512,-5.3646,-5.365,-5.3783,-5.3815,-5.3871,-5.396,-5.3938,-5.4023,-5.4033,-5.4121,-5.4131,-5.4263,-5.4285,-5.4298,-5.4299,-5.4299,-5.4298,-5.4331,-5.4318,-5.4299,-5.4298,-5.4296,-5.4295,0,-5.3479,-5.3501,-5.3648,-5.3713,-5.3732,-5.3828,-5.3883,-5.3964,-5.3986,-5.4099,-5.4126,-5.416,-5.4262,-5.4281,-5.44,-5.4407,-5.4564,-5.4553,-5.4541,-5.4539,-5.4635,-5.4625,-5.4943,-5.4984,-5.4718,-5.4721,-5.4723,0,-5.3616,-5.3708,-5.3783,-5.3842,-5.3882,-5.3976,-5.4035,-5.4043,-5.4105,-5.4189,-5.4259,-5.4358,-5.4437,-5.4601,-5.4636,-5.4727,-5.4717,-5.4822,-5.4731,-5.4728,-5.4717,-5.4711,-5.472,-5.4839,-5.4842,-5.4845,-5.4847,0,-5.3857,-5.3863,-5.3949,-5.4039,-5.411,-5.4181,-5.4248,-5.4297,-5.4314,-5.4384,-5.4488,-5.4549,-5.4671,-5.4769,-5.486,-5.4898,-5.4875,-5.4875,-5.4902,-5.4903,-5.4892,-5.4898,-5.4588,-5.4868,-5.4866,-5.4864,-5.4863,-5.4862,-5.4029,-5.4109,-5.4174,-5.4269,-5.4321,-5.4384,-5.4462,-5.4494,-5.458,-5.468,-5.4679,-5.4792,-5.4857,-5.4976,-5.502,-5.5108,-5.5074,-5.5114,-5.5123,-5.5133,-5.5141,-5.4879,-5.5124,-5.5124,-5.5123,-5.5123,-5.5122,0,-5.4268,-5.4308,-5.4396,-5.449,-5.4566,-5.4538,-5.4611,-5.4675,-5.4775,-5.4837,-5.4916,-5.5034,-5.5129,-5.5172,-5.5265,-5.5328,-5.532,-5.5352,-5.5347,-5.5356,-5.5166,-5.5133,-5.5357,-5.5357,-5.5357,-5.5356,-5.5356,-5.5356,-5.4401,-5.4534,-5.4548,-5.4706,-5.4745,-5.4856,-5.4899,-5.4957,-5.5007,-5.5139,-5.5218,-5.5246,-5.53,-5.5397,-5.5483,-5.5493,-5.5528,-5.5565,-5.557,-5.5393,-5.5369,-5.5346,-5.5315,-5.5573,-5.5573,-5.5752,-5.5754,-5.5755]},{"header":{"parameterUnit":"m.s-1","parameterCategory":1,"la1":30.2991,"la2":30.254,"lo1":-89.0895,"lo2":-89.0444,"dy":0.0017,"dx":0.0017,"nx":28,"ny":28,"refTime":"2025-09-08T09:00:00:Z","depth":0,"parameterNumber":3,"parameterNumberName":"V-component_of_WINDS"},"data":[0,0,0,0,0,0,0,0,0,0,0,0,0,0,0,0,0,0,0,0,0,0,0,0,0,0,0,0,0,0,0,0,0,0,0,0,0,0,0,0,0,0,0,0,0,0,0,0,0,0,0,0,0,0,0,0,0,0,-0.918,-0.9181,0,-0.9335,-0.9337,-0.9338,-0.9426,-0.9426,-0.9426,-0.9427,-0.9586,-0.9589,-0.9593,0,0,0,0,0,0,0,0,0,0,0,0,0,-0.8957,-0.8961,-0.9179,-0.9181,-0.9183,-0.9335,-0.9337,-0.9339,-0.9426,-0.9426,-0.9426,-0.9427,-0.9584,-0.9589,-0.9594,0,0,0,0,0,0,0,0,0,0,0,0,0,-0.9077,-0.8962,-0.9179,-0.9245,-0.9252,-0.9334,-0.9337,-0.9339,-0.9426,-0.9426,-0.9427,-0.9427,-0.9583,-0.9588,-0.9594,-0.9622,0,0,-0.9612,-0.9615,0,0,0,0,0,0,0,0,-0.907,-0.9085,-0.9233,-0.9241,-0.9249,-0.9361,-0.9317,-0.9434,-0.9426,-0.936,-0.9427,-0.9427,-0.9511,-0.9522,-0.9551,-0.963,-0.9637,-0.9613,-0.9617,-0.9619,-0.9621,0,0,0,0,0,0,0,-0.9062,-0.9079,-0.9241,-0.9235,-0.9245,-0.9266,-0.9284,-0.9339,-0.9431,-0.9366,-0.9372,-0.939,-0.9515,-0.9545,-0.9555,-0.9639,-0.9613,-0.9618,-0.9622,-0.9624,-0.9748,-0.9748,0,0,0,0,0,0,-0.9043,-0.9071,-0.9236,-0.9246,-0.9159,-0.927,-0.929,-0.9325,-0.9431,-0.9447,-0.9389,-0.9393,-0.9534,-0.9548,-0.9561,-0.96,-0.9619,-0.9625,-0.9628,-0.9748,-0.9748,-0.9747,0,0,0,0,0,0,-0.9038,-0.9057,-0.923,-0.916,-0.9184,-0.9273,-0.9312,-0.9328,-0.9358,-0.9448,-0.9465,-0.9403,-0.9535,-0.9553,-0.9606,-0.9607,-0.9627,-0.9633,-0.9748,-0.9748,-0.9748,-0.9679,0,0,0,0,0,0,-0.9031,-0.9054,-0.9066,-0.916,-0.9187,-0.9273,-0.9312,-0.933,-0.9368,-0.9374,-0.9466,-0.9481,-0.9537,-0.9597,-0.9612,-0.9616,-0.9637,-0.9749,-0.9748,-0.9748,-0.9682,-0.9676,-0.9672,0,0,0,0,0,-0.9023,-0.9041,-0.9067,-0.9086,-0.9204,-0.9273,-0.9288,-0.9352,-0.9367,-0.938,-0.9438,-0.9478,-0.9604,-0.9602,-0.962,-0.9625,-0.9749,-0.9748,-0.9748,-0.9684,-0.9677,-0.9672,0,0,0,0,0,0,-0.8946,-0.9055,-0.9084,-0.9134,-0.9193,-0.9287,-0.9305,-0.9343,-0.94,-0.9404,-0.9481,-0.9501,-0.9547,-0.9591,-0.9586,-0.9657,-0.9681,-0.9684,-0.9626,-0.9621,-0.9616,-0.9604,-0.9642,0,0,0,0,0,-0.8935,-0.8981,-0.9074,-0.9108,-0.9137,-0.9215,-0.9247,-0.9291,-0.9356,-0.9382,-0.9444,-0.9505,-0.9558,-0.9592,-0.9646,-0.9688,-0.9709,-0.9701,-0.9695,-0.9691,-0.9693,-0.9717,-0.9714,-0.9745,-0.9745,-0.9745,0,0,-0.8912,-0.8977,-0.9002,-0.9094,-0.9146,-0.9192,-0.9236,-0.9283,-0.9318,-0.9389,-0.9443,-0.9491,-0.9564,-0.9611,-0.9635,-0.965,-0.9688,-0.969,-0.9686,-0.969,-0.9716,-0.9713,-0.971,-0.9745,-0.9745,-0.9745,0,0,-0.8894,-0.8948,-0.8983,-0.9033,-0.911,-0.9162,-0.9169,-0.9258,-0.9292,-0.9347,-0.9401,-0.9443,-0.9534,-0.9584,-0.9621,-0.9619,-0.9658,-0.9635,-0.9609,-0.9632,-0.9629,-0.9628,-0.9627,-0.9625,-0.9636,-0.9636,-0.9636,0,-0.8856,-0.8928,-0.8995,-0.9039,-0.9078,-0.9144,-0.9178,-0.9224,-0.9314,-0.9339,-0.9354,-0.9468,-0.9522,-0.9581,-0.9581,-0.9609,-0.962,-0.9625,-0.9624,-0.9623,-0.9623,-0.9622,-0.9622,-0.9632,-0.9633,-0.9633,-0.9634,0,-0.8877,-0.8926,-0.8944,-0.9029,-0.907,-0.9109,-0.9181,-0.9214,-0.9254,-0.9304,-0.9359,-0.9426,-0.9494,-0.9511,-0.9551,-0.9576,-0.9583,-0.961,-0.9636,-0.9615,-0.9616,-0.9617,-0.9628,-0.9629,-0.963,-0.9631,0,0,-0.8817,-0.8937,-0.8943,-0.8982,-0.9071,-0.9109,-0.915,-0.9217,-0.9243,-0.9303,-0.9339,-0.9413,-0.9438,-0.948,-0.9526,-0.9546,-0.9539,-0.9571,-0.9574,-0.9562,-0.957,-0.9549,-0.9548,-0.9565,-0.9566,-0.9566,-0.9564,0,-0.8812,-0.8889,-0.895,-0.9004,-0.9049,-0.9112,-0.9148,-0.9205,-0.9253,-0.9297,-0.935,-0.9401,-0.9431,-0.9456,-0.9479,-0.9535,-0.9542,-0.9536,-0.9599,-0.9601,-0.9579,-0.9549,-0.9527,-0.9522,-0.9565,-0.9565,-0.9565,0,-0.8817,-0.8873,-0.8931,-0.9014,-0.9035,-0.9066,-0.9131,-0.9174,-0.924,-0.9273,-0.9318,-0.9366,-0.9411,-0.9432,-0.9495,-0.949,-0.9519,-0.955,-0.9552,-0.956,-0.9582,-0.9556,-0.9522,-0.9521,-0.9567,-0.9566,-0.9566,0,-0.8766,-0.8857,-0.8903,-0.8934,-0.9032,-0.9052,-0.9094,-0.9161,-0.9196,-0.9253,-0.9276,-0.9337,-0.9371,-0.9417,-0.9479,-0.9488,-0.9535,-0.9562,-0.9564,-0.9562,-0.9571,-0.957,-0.9541,-0.959,-0.959,-0.959,-0.959,0,-0.8754,-0.8787,-0.8881,-0.891,-0.8948,-0.9017,-0.9054,-0.9101,-0.9159,-0.9197,-0.9255,-0.929,-0.9369,-0.9413,-0.9462,-0.9506,-0.9521,-0.9549,-0.9561,-0.9544,-0.954,-0.9564,-0.9566,-0.959,-0.959,-0.959,-0.959,0,-0.8704,-0.8769,-0.8823,-0.8911,-0.8933,-0.8958,-0.9033,-0.9062,-0.9112,-0.916,-0.9175,-0.9253,-0.9308,-0.9374,-0.945,-0.9483,-0.9522,-0.9541,-0.95,-0.9507,-0.9505,-0.9504,-0.9491,-0.9493,-0.954,-0.9539,-0.9539,0,-0.8692,-0.8719,-0.8809,-0.8838,-0.8878,-0.8925,-0.8961,-0.903,-0.9065,-0.9141,-0.9161,-0.922,-0.9271,-0.9355,-0.9419,-0.9477,-0.9498,-0.9489,-0.9507,-0.9488,-0.9497,-0.9495,-0.9498,-0.9484,-0.9484,-0.9483,-0.9482,0,-0.8664,-0.8694,-0.8744,-0.8805,-0.8846,-0.8897,-0.8951,-0.8972,-0.9051,-0.9087,-0.9144,-0.9183,-0.926,-0.9317,-0.9383,-0.9426,-0.9467,-0.9476,-0.948,-0.9462,-0.9437,-0.945,-0.9487,-0.9476,-0.9477,-0.9477,-0.9478,-0.9478,-0.8633,-0.8659,-0.8726,-0.8779,-0.8826,-0.8874,-0.8906,-0.8959,-0.9007,-0.9075,-0.9113,-0.9168,-0.9232,-0.9325,-0.9366,-0.941,-0.9424,-0.943,-0.9431,-0.9431,-0.9425,-0.9429,-0.9422,-0.9422,-0.9422,-0.9423,-0.9423,0,-0.8607,-0.8653,-0.8701,-0.8773,-0.8815,-0.8849,-0.891,-0.8942,-0.899,-0.9046,-0.9095,-0.9159,-0.9214,-0.9281,-0.9341,-0.9363,-0.9384,-0.9377,-0.9376,-0.9385,-0.9409,-0.94,-0.9359,-0.9359,-0.9359,-0.9359,-0.9359,-0.9359,-0.8599,-0.8644,-0.8682,-0.8751,-0.8797,-0.8851,-0.8882,-0.8927,-0.8972,-0.9041,-0.9087,-0.913,-0.9191,-0.9255,-0.9308,-0.9326,-0.9345,-0.9333,-0.9356,-0.9378,-0.9383,-0.9389,-0.938,-0.9336,-0.9336,-0.9329,-0.9329,-0.9328]}]]